Weather History for Houma, LA

Change the Weather History Date:

Saturday, September 8, 2012

  Actual Average Record
Temperature  
Mean Temperature 82 °F -  
Max Temperature 91 °F 87 °F 96 °F (2008)
Min Temperature 72 °F 70 °F 56 °F (1932)
Cooling Degree Days 16    
Growing Degree Days 32 (Base 50)    
Moisture  
Dew Point 75 °F    
Average Humidity 93    
Maximum Humidity 100    
Minimum Humidity 59    
Precipitation  
Precipitation 0.14 in - - ()
Sea Level Pressure  
Sea Level Pressure 29.87 in    
Wind  
Wind Speed 2 mph (NW)    
Max Wind Speed 12 mph    
Max Gust Speed 17 mph    
Visibility 7 miles    
Events Thunderstorm    
Averages and records for this station are not official NWS values.
T = Trace of Precipitation, MM = Missing Value Source: NWS Daily Summary

Daily Weather History Graph

Daily Weather History Graph

Search for Another Location

Airport:

Trip Planner

Search our weather history database for the weather conditions in past years. The results will help you decide how hot, cold, wet, or windy it might be!

Date:

Astronomy

Sep. 08, 2012 Rise Set
Actual Time 6:43 AM CDT 7:15 PM CDT
Civil Twilight 6:19 AM CDT 7:39 PM CDT
Nautical Twilight 5:51 AM CDT 8:07 PM CDT
Astronomical Twilight 5:23 AM CDT 8:36 PM CDT
Moon No Moon Rise 1:53 PM CDT (9/8)
Length of Visible Light 13h 19m
Length of Day
12h 31m
Waning Gibbous, 48% of the Moon is Illuminated
Sep 8
Waning Gibbous
Sep 15
New
Sep 22
First Quarter
Sep 29
Full
Oct 8
Last Quarter

Hourly Weather History & Observations

Time (CDT) Temp. Heat Index Dew Point Humidity Pressure Visibility Wind Dir Wind Speed Gust Speed Precip Events Conditions
12:15 AM 75.4 °F - 75.4 °F 100% 29.84 in - Calm Calm - N/A   Unknown
12:35 AM 75.6 °F - 75.6 °F 100% 29.84 in - Calm Calm - N/A   Unknown
12:55 AM 75.6 °F - 75.6 °F 100% 29.84 in - Calm Calm - N/A   Unknown
1:15 AM 75.2 °F - 75.2 °F 100% 29.84 in - Calm Calm - N/A   Unknown
1:35 AM 75.2 °F - 75.2 °F 100% 29.84 in - Calm Calm - N/A   Unknown
1:55 AM 75.2 °F - 75.2 °F 100% 29.84 in - Calm Calm - N/A   Unknown
2:15 AM 74.8 °F - 74.8 °F 100% 29.84 in 10.0 mi Calm Calm - N/A   Clear
2:35 AM 75.2 °F - 75.2 °F 100% 29.84 in - Calm Calm - N/A   Unknown
2:55 AM 74.3 °F - 74.3 °F 100% 29.84 in - Calm Calm - N/A   Unknown
3:15 AM 73.4 °F - 73.4 °F 100% 29.83 in - Calm Calm - N/A   Unknown
3:35 AM 73.2 °F - 73.2 °F 100% 29.83 in - Calm Calm - N/A   Unknown
3:55 AM 73.2 °F - 73.2 °F 100% 29.83 in - Calm Calm - N/A   Unknown
4:15 AM 72.7 °F - 72.7 °F 100% 29.83 in - Calm Calm - N/A   Unknown
4:35 AM 72.9 °F - 72.9 °F 100% 29.82 in - Calm Calm - N/A   Unknown
4:55 AM 72.3 °F - 72.3 °F 100% 29.83 in - Calm Calm - N/A   Unknown
5:15 AM 72.9 °F - 72.9 °F 100% 29.83 in - Calm Calm - N/A   Unknown
5:35 AM - - - N/A% 29.84 in - Calm Calm - N/A   Unknown
5:50 AM 73.4 °F - 73.4 °F 100% 29.86 in 5.0 mi Calm Calm - N/A   Clear
5:55 AM 73.0 °F - 73.0 °F 100% 29.85 in - Calm Calm - N/A   Unknown
6:50 AM 73.4 °F - 73.4 °F 100% 29.86 in 7.0 mi Calm Calm - N/A   Clear
7:50 AM 75.2 °F - 75.2 °F 100% 29.87 in 7.0 mi Calm Calm - N/A   Clear
8:50 AM 82.4 °F 92.4 °F 78.8 °F 89% 29.90 in 7.0 mi West 9.2 mph - N/A   Partly Cloudy
9:50 AM 84.2 °F 96.1 °F 78.8 °F 84% 29.90 in 7.0 mi NW 11.5 mph - N/A   Scattered Clouds
10:50 AM 84.2 °F 94.1 °F 77.0 °F 79% 29.90 in 7.0 mi WNW 11.5 mph - N/A   Scattered Clouds
11:50 AM 87.8 °F 99.7 °F 77.0 °F 70% 29.89 in 7.0 mi NW 9.2 mph - N/A   Scattered Clouds
12:50 PM 91.4 °F 105.1 °F 77.0 °F 63% 29.87 in 7.0 mi NW 9.2 mph - N/A   Scattered Clouds
1:50 PM 91.4 °F 102.5 °F 75.2 °F 59% 29.84 in 7.0 mi NW 9.2 mph - N/A   Scattered Clouds
2:55 PM 91.4 °F 102.5 °F 75.2 °F 59% 29.82 in 7.0 mi SW 8.1 mph - N/A   Scattered Clouds
3:50 PM 89.6 °F 99.8 °F 75.2 °F 62% 29.80 in 7.0 mi SW 8.1 mph - N/A   Mostly Cloudy
5:47 PM 82.4 °F 90.9 °F 77.0 °F 84% 29.81 in 7.0 mi North 11.5 mph 17.3 mph N/A   Scattered Clouds
6:50 PM 80.6 °F 85.4 °F 73.4 °F 79% 29.86 in 7.0 mi NNW 8.1 mph - N/A   Overcast
7:15 PM 76.1 °F - 75.7 °F 99% 29.86 in - Calm Calm - 0.04 in Thunderstorm Thunderstorm
7:35 PM 77.0 °F - 76.6 °F 99% 29.87 in - NE 4.6 mph - 0.08 in   Overcast
7:55 PM 77.0 °F - 77.0 °F 100% 29.88 in - Calm Calm - 0.10 in   Unknown
8:15 PM 77.0 °F - 77.0 °F 100% 29.89 in - Calm Calm - 0.02 in   Overcast
8:35 PM 77.0 °F - 76.5 °F 98% 29.89 in - NNW 3.5 mph - 0.03 in   Unknown
8:55 PM 77.0 °F - 76.1 °F 97% 29.91 in - North 5.8 mph - 0.03 in   Unknown
9:15 PM 77.0 °F - 75.9 °F 96% 29.92 in - NNW 5.8 mph - 0.01 in   Overcast
9:35 PM 77.0 °F - 75.4 °F 95% 29.94 in - NNW 6.9 mph - 0.01 in Thunderstorm Thunderstorm
9:55 PM 76.6 °F - 75.2 °F 95% 29.94 in - NNW 5.8 mph - 0.01 in   Unknown
10:15 PM 76.3 °F - 74.7 °F 95% 29.94 in - NNW 8.1 mph - N/A Thunderstorm Thunderstorm
10:35 PM 76.1 °F - 74.3 °F 94% 29.94 in - NNW 8.1 mph - N/A   Unknown
10:55 PM 75.6 °F - 74.3 °F 96% 29.94 in - NNW 9.2 mph - N/A   Overcast
11:15 PM 74.8 °F - 73.2 °F 95% 29.94 in - NNW 10.4 mph - N/A   Unknown
11:55 PM 73.8 °F - 72.7 °F 96% 29.93 in - NNW 10.4 mph - N/A   Unknown